User: anonymous   Login
Location: Frankfurt+(oder)
(51.7984°N, 12.2168°E)
Time: 20:47:23
(UTC+02:00)
Language:

ISS - Orbit

View from above orbital plane
View from above orbital plane
View from above satellite
View from above satellite

Ground track
Ground track

The orbit data is extracted from the following two-line orbital elements,

1 25544U 98067A   18142.02907435  .00016717  00000-0  10270-3 0  9014
2 25544  51.6358 149.1139 0003790 108.6556 251.5008 15.54081431 34446
Epoch (UTC): 22 May 2018 00:41:52
Eccentricity: 0.0003790
inclination: 51.6358°
perigee height: 402 km
apogee height: 407 km
right ascension of ascending node: 149.1139°
argument of perigee: 108.6556°
revolutions per day: 15.54081431
mean anomaly at epoch: 251.5008°
orbit number at epoch: 3444

The dashed part of the orbit path shows where the satellite is in the earth's shadow,  

DLR